Location: Hilde
(52.9479°N, 6.4449°E)
Time: 20:30:11
(UTC+00:00)

Cosmos-2242 - Pass Details

Date: 15 May 2026
Orbit: 565 x 588 km, 82.5° (Epoch: 8 June)

Event Time Altitude Azimuth Distance (km) Brightness Sun altitude
Exits shadow 21:37:47 24° 155° (SSE) 1,205 3.9 -14.0°
Maximum altitude 21:39:56 46° 94° (E) 768 3.3 -14.1°
Drops below altitude 10° 21:43:54 10° 21° (NNE) 1,877 6.1 -14.4°
Sets 21:46:08 0° 16° (NNE) 2,778 7.2 -14.5°
